GW6466 Weather Reports


Display with metric or nautical units.
time (UTC)temp
F
wind
direction
speed
MPH
gust
MPH
rain 1hr
in
rain 24hr
in
rain mn
in
humidity
%
barometer
mb
20260906224158 76 52 4.0 6.0 0.00 0.00 0.00 99 753.0
20260906223658 77 87 3.0 7.0 0.00 0.00 0.00 99 753.0
20260906223158 77 52 11.0 14.0 0.00 0.00 0.00 99 753.0
20260906222658 76 89 8.0 10.0 0.00 0.00 0.00 99 753.0
20260906222158 76 76 5.0 9.0 0.00 0.00 0.00 99 753.0
20260906221700 75 40 5.0 9.0 0.00 0.00 0.00 99 753.0
20260906221158 74 111 6.0 11.0 0.00 0.00 0.00 99 753.0
20260906220700 75 100 9.0 11.0 0.00 0.00 0.00 99 753.0
20260906220158 74 62 3.0 11.0 0.00 0.00 0.00 99 753.0
20260906215658 74 74 8.0 14.0 0.00 0.00 0.00 99 753.0
20260906215158 74 123 6.0 13.0 0.00 0.00 0.00 99 753.0
20260906214658 75 94 7.0 15.0 0.00 0.00 0.00 99 753.0
20260906214159 75 92 6.0 14.0 0.00 0.00 0.00 99 754.0
20260906213658 74 91 9.0 15.0 0.00 0.00 0.00 99 754.0
20260906213158 74 72 4.0 14.0 0.00 0.00 0.00 99 754.0
20260906212658 75 166 7.0 15.0 0.00 0.00 0.00 99 754.0
20260906212158 77 63 10.0 18.0 0.00 0.00 0.00 99 754.0
20260906211658 74 99 4.0 16.0 0.00 0.00 0.00 99 753.0
20260906211158 74 37 11.0 18.0 0.00 0.00 0.00 99 754.0
20260906210658 75 107 6.0 13.0 0.00 0.00 0.00 99 754.0
20260906210158 76 90 7.0 14.0 0.00 0.00 0.00 99 754.0
20260906205700 76 90 14.0 18.0 0.00 0.00 0.00 99 754.0
20260906205159 76 88 13.0 21.0 0.00 0.00 0.00 99 754.0
20260906204700 75 79 4.0 10.0 0.00 0.00 0.00 99 754.0
20260906204158 75 52 12.0 16.0 0.00 0.00 0.00 99 754.0
20260906203658 75 89 12.0 16.0 0.00 0.00 0.00 99 754.0
20260906203158 76 114 4.0 16.0 0.00 0.00 0.00 99 754.0
20260906202658 75 48 11.0 14.0 0.00 0.00 0.00 99 754.0
20260906202158 74 43 9.0 16.0 0.00 0.00 0.00 99 754.0
20260906201658 75 70 9.0 15.0 0.00 0.00 0.00 99 754.0
20260906201158 76 310 3.0 17.0 0.00 0.00 0.00 99 754.0
20260906200659 75 62 7.0 14.0 0.00 0.00 0.00 99 754.0
20260906200158 74 351 5.0 16.0 0.00 0.00 0.00 99 754.0
20260906195658 74 92 8.0 11.0 0.00 0.00 0.00 99 754.0
20260906195158 75 55 8.0 15.0 0.00 0.00 0.00 99 754.0
20260906194701 77 42 5.0 16.0 0.00 0.00 0.00 99 754.0
20260906194159 76 61 4.0 17.0 0.00 0.00 0.00 99 754.0
20260906193658 76 50 3.0 17.0 0.00 0.00 0.00 99 754.0
20260906193158 76 54 7.0 10.0 0.00 0.00 0.00 99 754.0
20260906192658 75 82 2.0 6.0 0.00 0.00 0.00 99 754.0
20260906192158 76 79 6.0 13.0 0.00 0.00 0.00 99 754.0
20260906191658 77 9 10.0 16.0 0.00 0.00 0.00 99 754.0
20260906191158 76 68 4.0 10.0 0.00 0.00 0.00 99 754.0
20260906190658 76 66 7.0 8.0 0.00 0.00 0.00 99 754.0
20260906190202 76 54 8.0 15.0 0.00 0.00 0.00 99 754.0
20260906185659 77 53 7.0 11.0 0.00 0.00 0.00 99 754.0
20260906185158 76 13 4.0 13.0 0.00 0.00 0.00 99 754.0
20260906184700 75 128 8.0 10.0 0.00 0.00 0.00 99 754.0
20260906184158 75 88 10.0 18.0 0.00 0.00 0.00 99 754.0
20260906183659 77 180 3.0 8.0 0.00 0.00 0.00 99 754.0
20260906183159 77 13 5.0 8.0 0.00 0.00 0.00 99 755.0
20260906182659 75 70 4.0 9.0 0.00 0.00 0.00 99 754.0
20260906182158 74 61 9.0 11.0 0.00 0.00 0.00 99 755.0
20260906181658 74 141 7.0 14.0 0.00 0.00 0.00 99 755.0
20260906181158 75 55 5.0 10.0 0.00 0.00 0.00 99 755.0
20260906180659 75 50 3.0 8.0 0.00 0.00 0.00 99 755.0
20260906180158 75 98 11.0 13.0 0.00 0.00 0.00 99 755.0
20260906175659 75 76 7.0 11.0 0.00 0.00 0.00 99 755.0
20260906175158 75 109 1.0 10.0 0.00 0.00 0.00 99 755.0
20260906174658 74 85 3.0 8.0 0.00 0.00 0.00 99 755.0
20260906174158 74 92 12.0 14.0 0.00 0.00 0.00 99 755.0
20260906173659 73 177 4.0 8.0 0.00 0.00 0.00 99 756.0
20260906173200 72 52 8.0 14.0 0.00 0.00 0.00 99 756.0
20260906172659 71 88 11.0 15.0 0.00 0.00 0.00 99 756.0
20260906172159 72 141 11.0 13.0 0.00 0.00 0.00 99 756.0
20260906171658 72 74 7.0 10.0 0.00 0.00 0.00 99 756.0
20260906171159 73 101 8.0 15.0 0.00 0.00 0.00 99 756.0
20260906170658 74 29 3.0 7.0 0.00 0.00 0.00 99 756.0
20260906170158 72 220 3.0 9.0 0.00 0.00 0.00 99 756.0
20260906165658 73 42 4.0 8.0 0.00 0.00 0.00 99 756.0
20260906165158 73 120 4.0 6.0 0.00 0.00 0.00 99 756.0
20260906164659 72 136 7.0 9.0 0.00 0.00 0.00 99 756.0
20260906164158 72 98 2.0 10.0 0.00 0.00 0.00 99 756.0
20260906163658 73 98 9.0 11.0 0.00 0.00 0.00 99 756.0
20260906163158 71 84 9.0 13.0 0.00 0.00 0.00 99 756.0
20260906162658 73 359 4.0 8.0 0.00 0.00 0.00 99 756.0
20260906162158 73 57 3.0 7.0 0.00 0.00 0.00 99 756.0
20260906161658 71 71 3.0 9.0 0.00 0.00 0.00 99 756.0
20260906161159 71 120 6.0 8.0 0.00 0.00 0.00 99 756.0
20260906160658 71 108 7.0 9.0 0.00 0.00 0.00 99 756.0
20260906160159 72 144 2.0 9.0 0.00 0.00 0.00 99 756.0
20260906155658 71 52 3.0 7.0 0.00 0.00 0.00 99 756.0
20260906155158 71 49 3.0 6.0 0.00 0.00 0.00 99 756.0
20260906154658 70 136 4.0 8.0 0.00 0.00 0.00 99 756.0
20260906154202 70 25 1.0 6.0 0.00 0.00 0.00 99 755.0
20260906153658 71 122 4.0 6.0 0.00 0.00 0.00 99 755.0
20260906153158 69 193 1.0 3.0 0.00 0.00 0.00 99 756.0
20260906152658 69 233 3.0 3.0 0.00 0.00 0.00 99 756.0
20260906152158 69 231 0.0 2.0 0.00 0.00 0.00 99 756.0
20260906151658 68 218 2.0 3.0 0.00 0.00 0.00 99 755.0
20260906151158 72 147 0.0 3.0 0.00 0.00 0.00 99 755.0
20260906150658 71 203 0.0 1.0 0.00 0.00 0.00 99 755.0
20260906150158 71 139 2.0 3.0 0.00 0.00 0.00 99 755.0
20260906145658 69 173 1.0 2.0 0.00 0.00 0.00 99 755.0
20260906145158 65 189 0.0 1.0 0.00 0.00 0.00 99 756.0
20260906144658 63 212 3.0 5.0 0.00 0.00 0.00 99 756.0
20260906144158 66 205 1.0 1.0 0.00 0.00 0.00 99 756.0
20260906143658 63 187 0.0 0.0 0.00 0.00 0.00 99 756.0
20260906143159 60 192 1.0 2.0 0.00 0.00 0.00 99 755.0
20260906142658 59 223 2.0 5.0 0.00 0.00 0.00 99 756.0
20260906142158 59 206 2.0 5.0 0.00 0.00 0.00 99 755.0
20260906141659 58 216 3.0 3.0 0.00 0.00 0.00 99 756.0
20260906141158 56 227 4.0 6.0 0.00 0.00 0.00 99 755.0
20260906140658 56 232 5.0 6.0 0.00 0.00 0.00 99 756.0
20260906140158 56 227 4.0 5.0 0.00 0.00 0.00 99 755.0
20260906135658 57 228 3.0 5.0 0.00 0.00 0.00 99 755.0
20260906135158 58 239 1.0 2.0 0.00 0.00 0.00 99 755.0
20260906134658 58 237 2.0 3.0 0.00 0.00 0.00 99 755.0
20260906134157 58 246 3.0 5.0 0.00 0.00 0.00 99 755.0
20260906133658 58 236 3.0 3.0 0.00 0.00 0.00 99 755.0
20260906133159 57 262 3.0 5.0 0.00 0.00 0.00 99 755.0
20260906132658 57 225 3.0 3.0 0.00 0.00 0.00 99 755.0
20260906132200 56 261 2.0 3.0 0.00 0.00 0.00 99 755.0
20260906131658 56 229 3.0 3.0 0.00 0.00 0.00 99 755.0
20260906131158 55 220 1.0 2.0 0.00 0.00 0.00 99 755.0
20260906130658 55 251 3.0 5.0 0.00 0.00 0.00 99 755.0
20260906130158 55 228 2.0 3.0 0.00 0.00 0.00 99 755.0
20260906125658 56 235 4.0 5.0 0.00 0.00 0.00 99 755.0
20260906125158 55 231 2.0 2.0 0.00 0.00 0.00 99 755.0
20260906124658 54 238 2.0 3.0 0.00 0.00 0.00 99 755.0
20260906124158 54 226 3.0 3.0 0.00 0.00 0.00 99 755.0
20260906123658 53 244 2.0 3.0 0.00 0.00 0.00 99 755.0
20260906123158 54 260 3.0 6.0 0.00 0.00 0.00 99 755.0
20260906122658 55 238 3.0 5.0 0.00 0.00 0.00 99 755.0
20260906122158 55 237 4.0 5.0 0.00 0.00 0.00 99 755.0
20260906121658 54 217 2.0 3.0 0.00 0.00 0.00 99 755.0
20260906121158 53 212 4.0 5.0 0.00 0.00 0.00 99 755.0
20260906120659 53 232 5.0 6.0 0.00 0.00 0.00 99 755.0
20260906120158 53 227 5.0 6.0 0.00 0.00 0.00 99 755.0
20260906115659 53 227 4.0 6.0 0.00 0.00 0.00 99 755.0
20260906115158 54 231 5.0 6.0 0.00 0.00 0.00 99 755.0
20260906114658 54 230 5.0 6.0 0.00 0.00 0.00 99 755.0
20260906114158 53 224 5.0 5.0 0.00 0.00 0.00 99 755.0
20260906113658 54 218 3.0 5.0 0.00 0.00 0.00 99 755.0
20260906113159 54 230 3.0 3.0 0.00 0.00 0.00 99 755.0
20260906112658 53 236 1.0 2.0 0.00 0.00 0.00 99 755.0
20260906112158 53 234 0.0 1.0 0.00 0.00 0.00 99 755.0
20260906111658 54 233 0.0 2.0 0.00 0.00 0.00 99 755.0
20260906111158 53 233 4.0 6.0 0.00 0.00 0.00 99 755.0
20260906110659 53 242 6.0 7.0 0.00 0.00 0.00 99 755.0
20260906110158 54 234 7.0 8.0 0.00 0.00 0.00 99 755.0
20260906105659 54 216 6.0 8.0 0.00 0.00 0.00 99 755.0
20260906105158 54 230 6.0 7.0 0.00 0.00 0.00 99 755.0
20260906104658 54 228 5.0 6.0 0.00 0.00 0.00 99 755.0
20260906104158 53 231 5.0 6.0 0.00 0.00 0.00 99 755.0
20260906103658 53 227 5.0 6.0 0.00 0.00 0.00 99 755.0
20260906103158 54 242 4.0 6.0 0.00 0.00 0.00 99 755.0
20260906102658 55 202 5.0 7.0 0.00 0.00 0.00 99 755.0
20260906102158 55 224 5.0 5.0 0.00 0.00 0.00 99 755.0
20260906101658 55 229 5.0 7.0 0.00 0.00 0.00 99 755.0
20260906101158 56 229 4.0 5.0 0.00 0.00 0.00 99 755.0
20260906100700 55 216 4.0 5.0 0.00 0.00 0.00 99 755.0
20260906100158 55 233 3.0 5.0 0.00 0.00 0.00 99 755.0
20260906095658 53 232 3.0 6.0 0.00 0.00 0.00 99 755.0
20260906095158 53 232 5.0 6.0 0.00 0.00 0.00 99 755.0
20260906094658 53 245 3.0 5.0 0.00 0.00 0.00 99 755.0
20260906094158 53 219 2.0 5.0 0.00 0.00 0.00 99 755.0
20260906093658 53 217 5.0 7.0 0.00 0.00 0.00 99 755.0
20260906093158 53 230 5.0 7.0 0.00 0.00 0.00 99 755.0
20260906092658 53 227 6.0 7.0 0.00 0.00 0.00 99 755.0
20260906092158 53 238 5.0 6.0 0.00 0.00 0.00 99 755.0
20260906091658 53 251 4.0 7.0 0.00 0.00 0.00 99 755.0
20260906091158 53 236 5.0 6.0 0.00 0.00 0.00 99 755.0
20260906090700 54 232 6.0 8.0 0.00 0.00 0.00 99 755.0
20260906090158 54 233 5.0 7.0 0.00 0.00 0.00 99 755.0
20260906085659 55 233 5.0 7.0 0.00 0.00 0.00 99 755.0
20260906085157 54 223 4.0 5.0 0.00 0.00 0.00 99 755.0
20260906084658 53 218 4.0 7.0 0.00 0.00 0.00 99 755.0
20260906084158 53 235 5.0 6.0 0.00 0.00 0.00 99 755.0
20260906083659 53 223 6.0 7.0 0.00 0.00 0.00 99 755.0
20260906083158 53 220 5.0 7.0 0.00 0.00 0.00 99 755.0
20260906082658 53 237 6.0 7.0 0.00 0.00 0.00 99 755.0
20260906082158 54 225 5.0 6.0 0.00 0.00 0.00 99 755.0
20260906081658 54 221 5.0 8.0 0.00 0.00 0.00 99 755.0
20260906081158 54 216 7.0 8.0 0.00 0.00 0.00 99 755.0
20260906080658 54 216 5.0 7.0 0.00 0.00 0.00 99 755.0
20260906080157 55 229 6.0 7.0 0.00 0.00 0.00 99 755.0
20260906075658 55 225 4.0 7.0 0.00 0.00 0.00 99 755.0
20260906075158 55 204 4.0 6.0 0.00 0.00 0.00 99 755.0
20260906074658 55 230 5.0 6.0 0.00 0.00 0.00 99 755.0
20260906074158 54 231 5.0 6.0 0.00 0.00 0.00 99 756.0
20260906073658 54 223 5.0 6.0 0.00 0.00 0.00 99 756.0
20260906073158 54 224 5.0 6.0 0.00 0.00 0.00 99 756.0
20260906072658 54 221 5.0 6.0 0.00 0.00 0.00 99 756.0
20260906072159 54 214 5.0 6.0 0.00 0.00 0.00 99 756.0
20260906071657 54 218 6.0 7.0 0.00 0.00 0.00 99 756.0
20260906071158 54 227 5.0 5.0 0.00 0.00 0.00 99 756.0
20260906070658 54 223 5.0 6.0 0.00 0.00 0.00 99 756.0
20260906070158 54 223 5.0 6.0 0.00 0.00 0.00 99 755.0
20260906065658 54 229 5.0 7.0 0.00 0.00 0.00 99 756.0
20260906065202 54 237 5.0 6.0 0.00 0.00 0.00 99 756.0
20260906064658 54 230 5.0 7.0 0.00 0.00 0.00 99 756.0
20260906064158 55 221 5.0 7.0 0.00 0.00 0.00 99 756.0
20260906063658 56 240 5.0 6.0 0.00 0.00 0.00 99 756.0
20260906063158 56 257 3.0 5.0 0.00 0.00 0.00 99 756.0
20260906062658 56 298 3.0 6.0 0.00 0.00 0.00 99 756.0
20260906062159 55 277 5.0 6.0 0.00 0.00 0.00 99 756.0
20260906061658 55 246 3.0 3.0 0.00 0.00 0.00 99 756.0
20260906061158 55 238 5.0 6.0 0.00 0.00 0.00 99 756.0
20260906060658 55 235 5.0 6.0 0.00 0.00 0.00 99 756.0
20260906060158 55 228 6.0 7.0 0.00 0.00 0.00 99 756.0
20260906055658 56 234 5.0 6.0 0.00 0.00 0.00 99 756.0
20260906055158 56 237 5.0 6.0 0.00 0.00 0.00 99 756.0
20260906054658 56 243 5.0 5.0 0.00 0.00 0.00 99 756.0
20260906054159 57 258 3.0 3.0 0.00 0.00 0.00 99 756.0
20260906053658 57 236 2.0 3.0 0.00 0.00 0.00 99 756.0
20260906053158 57 243 2.0 5.0 0.00 0.00 0.00 99 756.0
20260906052658 57 261 3.0 3.0 0.00 0.00 0.00 99 756.0
20260906052158 57 273 2.0 5.0 0.00 0.00 0.00 99 756.0
20260906051658 57 238 6.0 6.0 0.00 0.00 0.00 99 756.0
20260906051158 58 210 5.0 6.0 0.00 0.00 0.00 99 756.0
20260906050658 58 221 4.0 5.0 0.00 0.00 0.00 99 756.0
20260906050202 58 251 0.0 2.0 0.00 0.00 0.00 99 756.0
20260906045659 59 231 4.0 7.0 0.00 0.00 0.00 99 756.0
20260906045159 60 221 4.0 6.0 0.00 0.00 0.00 99 756.0
20260906044659 60 238 0.0 1.0 0.00 0.00 0.00 99 756.0
20260906044159 60 222 3.0 5.0 0.00 0.00 0.00 99 757.0
20260906043658 60 231 4.0 5.0 0.00 0.00 0.00 99 756.0
20260906043158 60 193 3.0 5.0 0.00 0.00 0.00 99 756.0
20260906042658 59 225 3.0 3.0 0.00 0.00 0.00 99 756.0
20260906042159 59 233 4.0 7.0 0.00 0.00 0.00 99 756.0
20260906041658 59 248 4.0 8.0 0.00 0.00 0.00 99 756.0
20260906041158 59 245 3.0 8.0 0.00 0.00 0.00 99 756.0
20260906040658 60 220 3.0 8.0 0.00 0.00 0.00 99 756.0
20260906040159 60 273 1.0 3.0 0.00 0.00 0.00 99 756.0
20260906035659 61 312 1.0 5.0 0.00 0.00 0.00 99 756.0
20260906035158 61 285 1.0 7.0 0.00 0.00 0.00 99 756.0
20260906034658 62 260 4.0 7.0 0.00 0.00 0.00 99 756.0
20260906034158 63 294 3.0 9.0 0.00 0.00 0.00 99 756.0
20260906033658 64 201 0.0 0.0 0.00 0.00 0.00 99 756.0
20260906033158 64 217 3.0 8.0 0.00 0.00 0.00 99 756.0
20260906032658 65 217 2.0 3.0 0.00 0.00 0.00 99 756.0
20260906032158 65 229 0.0 2.0 0.00 0.00 0.00 99 756.0
20260906031658 65 220 0.0 2.0 0.00 0.00 0.00 99 756.0
20260906031158 66 284 4.0 5.0 0.00 0.00 0.00 99 755.0
20260906030657 66 326 2.0 3.0 0.00 0.00 0.00 99 755.0
20260906030158 67 359 1.0 3.0 0.00 0.00 0.00 99 755.0
20260906025658 67 64 0.0 1.0 0.00 0.00 0.00 99 755.0
20260906025158 67 45 0.0 2.0 0.00 0.00 0.00 99 755.0
20260906024658 67 21 0.0 0.0 0.00 0.00 0.00 99 755.0
20260906024158 67 169 0.0 0.0 0.00 0.00 0.00 99 755.0
20260906023658 67 64 0.0 0.0 0.00 0.00 0.00 99 755.0
20260906023158 67 10 1.0 1.0 0.00 0.00 0.00 99 755.0
20260906022658 67 41 2.0 3.0 0.00 0.00 0.00 99 755.0
20260906022159 67 28 1.0 2.0 0.00 0.00 0.00 99 755.0
20260906021658 67 45 0.0 0.0 0.00 0.00 0.00 99 755.0
20260906021158 68 71 0.0 0.0 0.00 0.00 0.00 99 755.0
20260906020658 68 49 0.0 0.0 0.00 0.00 0.00 99 755.0
20260906020158 68 111 2.0 3.0 0.00 0.00 0.00 99 755.0
20260906015658 68 78 1.0 2.0 0.00 0.00 0.00 99 755.0
20260906015158 68 50 0.0 0.0 0.00 0.00 0.00 99 755.0
20260906014658 68 62 0.0 2.0 0.00 0.00 0.00 99 755.0
20260906014158 68 85 1.0 2.0 0.00 0.00 0.00 99 755.0
20260906013658 69 56 3.0 3.0 0.00 0.00 0.00 99 755.0
20260906013218 69 105 0.0 1.0 0.00 0.00 0.00 99 755.0
20260906012658 69 149 0.0 0.0 0.00 0.00 0.00 99 755.0
20260906012158 70 83 1.0 2.0 0.00 0.00 0.00 99 755.0
20260906011657 70 108 0.0 0.0 0.00 0.00 0.00 99 755.0
20260906011158 70 144 0.0 2.0 0.00 0.00 0.00 99 755.0
20260906010658 71 139 0.0 2.0 0.00 0.00 0.00 99 755.0
20260906010158 71 91 2.0 6.0 0.00 0.00 0.00 99 755.0
20260906005658 72 185 3.0 3.0 0.00 0.00 0.00 99 755.0
20260906005158 72 79 1.0 5.0 0.00 0.00 0.00 99 755.0
20260906004657 72 154 2.0 2.0 0.00 0.00 0.00 99 755.0
20260906004158 73 89 5.0 7.0 0.00 0.00 0.00 99 755.0
20260906003658 73 53 0.0 0.0 0.00 0.00 0.00 99 755.0
20260906003158 73 114 5.0 8.0 0.00 0.00 0.00 99 755.0
20260906002658 73 83 5.0 8.0 0.00 0.00 0.00 99 755.0
20260906002158 73 79 6.0 9.0 0.00 0.00 0.00 99 755.0
20260906001658 73 142 0.0 1.0 0.00 0.00 0.00 99 755.0
20260906001158 73 80 7.0 8.0 0.00 0.00 0.00 99 755.0
20260906000658 74 74 6.0 9.0 0.00 0.00 0.00 99 755.0
20260906000159 74 109 10.0 13.0 0.00 0.00 0.00 99 755.0
20260905235657 74 84 5.0 9.0 0.00 0.00 0.00 99 755.0
20260905235158 74 86 3.0 13.0 0.00 0.00 0.00 99 755.0
20260905234658 74 150 5.0 10.0 0.00 0.00 0.00 99 755.0
20260905234158 74 92 2.0 9.0 0.00 0.00 0.00 99 755.0
20260905233658 73 45 3.0 8.0 0.00 0.00 0.00 99 755.0
20260905233158 74 109 6.0 8.0 0.00 0.00 0.00 99 755.0
20260905232658 75 149 7.0 13.0 0.00 0.00 0.00 99 755.0
20260905232158 76 54 3.0 9.0 0.00 0.00 0.00 99 754.0
20260905231659 76 91 4.0 7.0 0.00 0.00 0.00 99 755.0
20260905231158 76 97 9.0 14.0 0.00 0.00 0.00 99 755.0
20260905230702 75 132 2.0 8.0 0.00 0.00 0.00 99 754.0
20260905230158 76 87 4.0 9.0 0.00 0.00 0.00 99 755.0
20260905225658 75 21 4.0 6.0 0.00 0.00 0.00 99 754.0
20260905225158 76 95 1.0 6.0 0.00 0.00 0.00 99 755.0
20260905224658 76 16 5.0 6.0 0.00 0.00 0.00 99 755.0